Agen Judi Casino dan Taruhan Bola Online Terbesar

Jackpot

Texas Poker Multi Jackpot System

Kini Telah hadir Jackpot SUPER ROYAL FLUSH

Kini Telah hadir Jackpot 2000 (khusus table VIP keatas).

Ikutilah global jackpot yang tersedia di system kami, dengan system jackpot terbaru dan pertama di indonesia, anda dapat membeli jackpot dengan harga 100 rupiah saja dan menangkan hadiahnya hingga puluhan juta rupiah.

Jackpot bukanlah suatu keharusan untuk dibeli, namun kami memberikan suatu fitur tambahan untuk member tercinta dari www.asiapoker303.net.

Terdapat tiga pilihan harga jackpot yang bisa anda beli yaitu :100,500,1000 dan 2000(khusus table VIP Keatas) rupiah.

Hadiah dari Multi jackpot system www.asiapoker303.net

  1. full house x 10 harga jackpot yang anda beli.
      (contoh:anda membeli 1000 maka:1000 X10 = 10.000)
  2. four of kind x 250 harga jackpot yang anda beli
      (contoh:anda membeli 1000 maka:1000 X250 = 250.000)
  3. Straight flush x 1200
      (contoh:anda membeli 1000 maka:1000 X1200 = 1.200.000)
  4. Royal flush x 10000 harga jackpot yang anda beli
      (contoh:anda membeli 1000 maka:1000 X10000 = 10.000.000)
  5. SUPER ROYAL FLUSH x 30000 harga jackpot yang anda beli
      (contoh:anda membeli 1000 maka:1000 X30000 = 30.000.000)

Kondisi kartu

  1. full house adalah kondisi kartu dimana kartu anda dan kartu tengah dengan total 7 kartu bisa mendapatkan nilai 5 kartu dengan kombinasi 1 tris(three of kind) dan 1 pair, contoh 3 kartu 10 dan 2 kartu 5
  2. Four of kind adalah kondisi kartu dimana kartu anda dan kartu tengah dengan total 7 kartu bisa mendapatkan nilai 5 kartu dengan kombinasi 4 kartu yang sama jumlah dan 1 kartu apapun juga contoh anda mendapatkan 4 buah kartu angka 3 dan 1 kartu apapun.
  3. Staright flush adalah kondisi kartu dimana kartu anda dan kartu tengah dengan total 7 kartu bisa mendapatkan nilai 5 kartu dengan kombinasi seri / staright dengan kembang yang sama contoh : urutan kartu dari angka 5, 6, 7, 8 , 9 10 dengan kembang yg sama misalnya as hati
  4. Royal flush adalah kondisi kartu dimana kartu anda dan kartu tengah dengan total 7 kartu bisa mendapatkan nilai 5 kartu dengan kombinasi seri / staright dengan kembang yang sama tetapi kartu tersebut haruslah dimulai dari 10. contoh 10, Queen, Jack, King dan aces dengan kembang yang sama
  5. Super Royal flush adalah kondisi kartu dimana Kedua kartu anda digabung dengan 3 kartu pertama meja haruslah royal flush. contoh kartu anda 10,Queen kembang sama dan 3 kartu pertama meja adalah Jack, King dan aces dengan kembang yang sama

Demikian adalah penjelasan dari Multi Jackpot www.asiapoker303.net terima kasih dan selamat bermain salam hoki dari kami

Texas Poker Jackpot Winner

TOP SUPER ROYAL FLUSH
No.TanggalNamaPriceWin
122/06 19:10Z2108Super Royal flush60,000,000
222/06 15:06M7H56LRCZZSuper Royal flush15,000,000
322/06 14:06ANDRAMANIHSuper Royal flush15,000,000
422/06 12:27JP_KERPOSuper Royal flush30,000,000
522/06 11:22ARBONG88Super Royal flush30,000,000
TOP ROYAL FLUSH
No.TanggalNamaPriceWin
122/06 19:50RONDAPOSRoyal flush5,000,000
222/06 19:47KHEIZANRoyal flush2,000,000
322/06 19:08ZE_ROCKRoyal flush2,000,000
422/06 18:42KS4TRIA_86Royal flush5,000,000
522/06 18:31GOMPAL123Royal flush2,000,000
TOP STRAIGHT FLUSH
No.TanggalNamaPriceWin
122/06 19:52JITUUUU99Straight Flush240,000
222/06 19:52TOMC3SStraight Flush120,000
322/06 19:50BOELUStraight Flush240,000
422/06 19:48JWUVZDNDDBStraight Flush600,000
522/06 19:48ALL05Straight Flush1,200,000
LATEST JACKPOT
No.TanggalNamaPriceWin
122/06 19:53BLOKA00Full House5,000
222/06 19:53JAYU99Four Of A Kind250,000
322/06 19:53RISKY_123Full House5,000
422/06 19:53GELEK234Full House2,000
522/06 19:53SJPOKER008Full House2,000
622/06 19:53SALOME_Full House10,000
722/06 19:53J4NG4N07Full House2,000
822/06 19:53VGLXY8HC4VFull House2,000
922/06 19:53APAK95Full House5,000
1022/06 19:52JITUUUU99Straight Flush240,000
1122/06 19:52DENG013Full House20,000
1222/06 19:52TARO84Full House2,000
1322/06 19:52HORSELOVE7Full House2,000
1422/06 19:52SLOWABIS95Full House2,000
1522/06 19:52RAJAWD13Full House2,000
1622/06 19:52OX5A0DR87GFull House2,000
1722/06 19:52DFGFBHGNGFull House5,000
1822/06 19:52QVXWMSO092Full House2,000
1922/06 19:52VGI1ERLINSKIFull House2,000
2022/06 19:52SG8_LFCFull House1,000
2122/06 19:52TEMPIXMASFull House1,000
2222/06 19:52DIOZZ888Full House5,000
2322/06 19:52D_FORTUNA9Full House1,000
2422/06 19:52AISITERU65Four Of A Kind250,000
2522/06 19:52BIRMANGFull House2,000
2622/06 19:52AMBLAS88Full House10,000
2722/06 19:52OCOL3M3NGFull House5,000
2822/06 19:52PATKAI889Four Of A Kind250,000
2922/06 19:52PALAKK99Full House500
3022/06 19:52SIBEKOFull House1,000
3122/06 19:52TOMY8686Full House1,000
3222/06 19:52FATTAAH003Full House2,000
3322/06 19:52NOEL140569Full House1,000
3422/06 19:52ZXTFVHNBYHFull House2,000
3522/06 19:52COLOMBIA69Full House1,000
3622/06 19:52DALAM6900Full House500
3722/06 19:52LADYSHANZAFour Of A Kind250,000
3822/06 19:52EDINAKFull House5,000
3922/06 19:52K47308Full House5,000
4022/06 19:52RBCRFull House10,000
4122/06 19:52ABANGADE07Full House5,000
4222/06 19:52STAFHKOUTGFull House5,000
4322/06 19:52PUPUAH76Full House5,000
4422/06 19:52REYGA19Full House2,000
4522/06 19:52RAJO_ANGEKFull House5,000
4622/06 19:52C6B68821Full House5,000
4722/06 19:52HANATRIFull House5,000
4822/06 19:52OJOLALINEAFull House2,000
4922/06 19:52CHAROLL123Full House2,000
5022/06 19:52URIP8TOKFull House5,000

Domino Multi Jackpot System

Ikutilah global jackpot yang tersedia di system kami, dengan system jackpot terbaru dan pertama di indonesia, anda dapat membeli jackpot dengan harga 100 rupiah saja dan menangkan hadiahnya hingga puluhan juta rupiah.

Jackpot bukanlah suatu keharusan untuk dibeli, namun kami memberikan suatu fitur tambahan untuk member tercinta dari www.asiapoker303.net.

Terdapat tiga pilihan harga jackpot yang bisa anda beli yaitu :100,500 dan 1000 rupiah.

Hadiah dari Multi jackpot system www.asiapoker303.net

  1. Murni Kecil x 50 harga jackpot yang anda beli.
      (contoh:anda membeli 1000 maka:1000 X 50 = 50.000)
  2. Murni Besar x 50 harga jackpot yang anda beli
      (contoh:anda membeli 1000 maka:1000 X 50 = 50.000)
  3. BALAK x 100 harga jackpot yang anda beli
      (contoh:anda membeli 1000 maka:1000 X 100 = 100.000)
  4. ENAM DEWA x 6666 harga jackpot yang anda beli
      (contoh:anda membeli 1000 maka:1000 X 6666 = 6.666.000)

Demikian adalah penjelasan dari Multi Jackpot www.asiapoker303.net terima kasih dan selamat bermain salam hoki dari kami

Domino Jackpot Winner

TOP ENAM DEWA
No.TanggalNamaPriceWin
122/06 19:06AZKHA883murni enam6,666,000
222/06 18:49C8D56233murni enam6,666,000
322/06 17:36OMJIN01murni enam3,333,000
422/06 17:28AMAL886murni enam3,333,000
522/06 15:41BEKANTANHSmurni enam6,666,000
TOP BALAK
No.TanggalNamaPriceWin
122/06 19:52LANDOENKbalak100,000
222/06 19:51CMBXXQQbalak100,000
322/06 19:49SASUKEZbalak100,000
422/06 19:48KIL4T88balak50,000
522/06 19:48VALDO017balak100,000
LATEST JACKPOT
No.TanggalNamaPriceWin
122/06 19:53SEXX44murni besar25,000
222/06 19:52LANDOENKbalak100,000
322/06 19:51TE5UH101murni kecil50,000
422/06 19:51HGAGmurni kecil50,000
522/06 19:51CMBXXQQbalak100,000
622/06 19:51KOZOR123murni kecil50,000
722/06 19:50APIP31murni kecil50,000
822/06 19:50DARIL909murni kecil25,000
922/06 19:50HAJIUROHmurni besar5,000
1022/06 19:49KULTUUmurni kecil50,000
1122/06 19:49AAMAND4murni kecil50,000
1222/06 19:49SASUKEZbalak100,000
1322/06 19:48THEJOKERS8murni besar25,000
1422/06 19:48KIL4T88balak50,000
1522/06 19:48KOZOR123murni besar50,000
1622/06 19:48VALDO017balak100,000
1722/06 19:47KHIDAYATbalak100,000
1822/06 19:47NI3balak100,000
1922/06 19:47WARRINbalak50,000
2022/06 19:45ADIKJAILmurni besar5,000
2122/06 19:45SEG999murni kecil25,000
2222/06 19:45ASR1067murni kecil5,000
2322/06 19:45O0B8N6BEGRmurni kecil25,000
2422/06 19:44TAPAIYbalak50,000
2522/06 19:44P4UL18murni besar50,000
2622/06 19:44MACO9murni besar25,000
2722/06 19:43RUW3TXmurni besar50,000
2822/06 19:43LOTS888murni kecil25,000
2922/06 19:43WARRINmurni kecil25,000
3022/06 19:40LISATUNmurni kecil25,000
3122/06 19:40AGENT88556murni besar50,000
3222/06 19:39ABDULLAHCCmurni kecil50,000
3322/06 19:39ASQAR01balak50,000
3422/06 19:38M4NGUR4murni besar50,000
3522/06 19:38GEPENKOBLOmurni besar25,000
3622/06 19:38LINEN87lucky9925,000
3722/06 19:38YUSUP82balak100,000
3822/06 19:37JOIN_506murni kecil5,000
3922/06 19:37PIAN71lucky9910,000
4022/06 19:37AMI11balak10,000
4122/06 19:37MZGUSAYmurni kecil5,000
4222/06 19:36HAJIUROHmurni kecil25,000
4322/06 19:36HIUWHITEmurni kecil25,000
4422/06 19:36SATAN667murni besar50,000
4522/06 19:35BOLANG811murni besar50,000
4622/06 19:35LISATUNbalak50,000
4722/06 19:35VJJJJJJmurni kecil25,000
4822/06 19:34DOA__IBUmurni besar50,000
4922/06 19:34AP101288balak100,000
5022/06 19:34PROQQIDmurni kecil50,000

Ceme Multi Jackpot System

Jackpot dilihat dari gabungan kartu pemain dengan kartu bandar. Bandar harus membeli jackpot sebanyak jumlah player yang sedang duduk. Sebagai contoh bila terdapat 3 pemain duduk bermain, dan bandar memutuskan untuk membeli jackpot Rp 1.000, maka pada periode tersebut bandar akan membeli jackpot sebanyak 3xRp1.000 = Rp3.000.

Jackpot bukanlah suatu keharusan untuk dibeli, namun kami memberikan suatu fitur tambahan untuk member tercinta dari www.asiapoker303.net.

Terdapat tiga pilihan harga jackpot yang bisa anda beli yaitu :100,500 dan 1000 rupiah.

Hadiah dari Multi jackpot system www.asiapoker303.net

  1. Murni Kecil x 50 harga jackpot yang anda beli.
      (contoh:anda membeli 1000 maka:1000 X 50 = 50.000)
  2. Murni Besar x 50 harga jackpot yang anda beli
      (contoh:anda membeli 1000 maka:1000 X 50 = 50.000)
  3. BALAK x 200 harga jackpot yang anda beli
      (contoh:anda membeli 1000 maka:1000 X 200 = 200.000)
  4. ENAM DEWA x 6666 harga jackpot yang anda beli
      (contoh:anda membeli 1000 maka:1000 X 6666 = 6.666.000)

Demikian adalah penjelasan dari Multi Jackpot www.asiapoker303.net terima kasih dan selamat bermain salam hoki dari kami

Ceme Jackpot Winner

TOP ENAM DEWA
No.TanggalNamaPriceWin
122/06 19:50SRNCINK88murni enam666,600
222/06 19:50JAYA_MAJUUmurni enam3,333,000
322/06 19:44DJAP92murni enam6,666,000
422/06 19:36LIS39murni enam6,666,000
522/06 19:33MYLYAmurni enam666,600
TOP BALAK
No.TanggalNamaPriceWin
122/06 19:53YAKI999balak100,000
222/06 19:53ADDITYAbalak20,000
322/06 19:53SANTI_IISbalak200,000
422/06 19:52DEJANTH22balak20,000
522/06 19:52PPO99balak200,000
LATEST JACKPOT
No.TanggalNamaPriceWin
122/06 19:53YAKI999balak100,000
222/06 19:53ADDITYAbalak20,000
322/06 19:53SANTI_IISbalak200,000
422/06 19:53MUJI8murni kecil5,000
522/06 19:53ZAINNITAmurni besar50,000
622/06 19:52PARDIAN88murni kecil25,000
722/06 19:52W1LS0Nmurni kecil50,000
822/06 19:52BRODIN9murni kecil25,000
922/06 19:52B78B3189murni kecil50,000
1022/06 19:52B48ASAN99615murni kecil25,000
1122/06 19:52LORENZZAmurni besar25,000
1222/06 19:52UMMANmurni kecil50,000
1322/06 19:52LB8823PFYmurni besar50,000
1422/06 19:52DEJANTH22balak20,000
1522/06 19:52PPO99balak200,000
1622/06 19:52BUN999murni kecil5,000
1722/06 19:52JUPHRImurni kecil50,000
1822/06 19:52BGEDImurni kecil50,000
1922/06 19:52ORALITE_SFmurni besar50,000
2022/06 19:52SPARTAN94murni kecil5,000
2122/06 19:52ELTITUSI06murni kecil50,000
2222/06 19:51MRJ0K3Rmurni besar50,000
2322/06 19:51PUSHME909murni besar25,000
2422/06 19:51SARU81balak20,000
2522/06 19:51ONEWAN75murni kecil50,000
2622/06 19:51RIAPRAmurni kecil25,000
2722/06 19:51TRI010203murni besar5,000
2822/06 19:51SASKIAQUmurni besar25,000
2922/06 19:51CAPLANG13murni besar50,000
3022/06 19:51ENCA10murni besar50,000
3122/06 19:51LOVEBIRD17balak20,000
3222/06 19:51ADJONGmurni besar5,000
3322/06 19:51WEULINGmurni besar50,000
3422/06 19:51MAHESAESAmurni besar50,000
3522/06 19:50KOEDOEKmurni kecil50,000
3622/06 19:50IRMAN808murni kecil25,000
3722/06 19:50SRNCINK88murni enam666,600
3822/06 19:50JAYA_MAJUUmurni enam3,333,000
3922/06 19:50COOL18DEWAmurni besar50,000
4022/06 19:50VIJAY76murni besar5,000
4122/06 19:50PENJILAT11balak200,000
4222/06 19:50KELENG16balak200,000
4322/06 19:50PARDIAN88murni besar25,000
4422/06 19:50C4A5790Cmurni kecil50,000
4522/06 19:50EXA14murni kecil5,000
4622/06 19:50VMR11murni besar50,000
4722/06 19:50DADANG999murni besar50,000
4822/06 19:50BISDIDI666murni besar25,000
4922/06 19:50BISDIDI666murni besar25,000
5022/06 19:50MIJASSUTRAmurni besar50,000